Location: Dehesa de la Cepeda
(40.6574°N, 4.3013°W)
Time: 10:29:40
(UTC+00:00)

Transit 2A Rocket - Pass Details

Date: 13 August 2021
Orbit: 586 x 917 km, 66.7° (Epoch: 24 September)

Event Time Altitude Azimuth Distance (km) Brightness Sun altitude
Rises 19:05:00 0° 338° (NNW) 3,312 8.9 1.4°
Reaches altitude 10° 19:07:42 10° 350° (N) 2,431 8.0 1.0°
Maximum altitude 19:12:35 29° 50° (NE) 1,536 6.4 0.1°
Drops below altitude 10° 19:17:43 10° 109° (ESE) 2,566 7.1 -0.8°
Enters shadow 19:20:16 - 119° (ESE) 3,406 7.7 -1.3°
Sets 19:20:37 0° 120° (ESE) 3,527 - -1.4°
